Regional Weather Roundup
Issued by NWS

Home | Current Version | Previous Version | Graphics & Text | Print | Product List | Glossary On
Versions: 1 2 3 4 5 6 7 8 9 10 11 12 13 14 15 16 17 18 19 20 21 22 23 24 25 26 27 28 29 30 31 32 33 34 35 36 37 38 39 40 41 42 43 44 45 46 47 48 49 50
000
ASUS45 KBOI 071310
RWRID

IDAHO REGIONAL WEATHER ROUNDUP
NATIONAL WEATHER SERVICE BOISE ID
600 AM MST WED DEC 07 2016

NOTE: "FAIR" INDICATES FEW OR NO CLOUDS BELOW 12000 FEET
WITH NO SIGNIFICANT WEATHER AND/OR OBSTRUCTIONS TO VISIBILITY

IDZ012-014-071400-
SOUTHWEST IDAHO


CITY           SKY/WX    TMP DP  RH WIND       PRES   REMARKS
BOISE          FOG       13  11  92 S5        30.27R VSB 1   WCI   5
CALDWELL       MOCLDY     5   1  85 E3        30.31R FOG
MOUNTAIN HOME  FOG       10   8  92 CALM      30.27R VSB 1/2
$$

IDZ016-017-071400-
SOUTHCENTRAL IDAHO


CITY           SKY/WX    TMP DP  RH WIND       PRES   REMARKS
BURLEY         CLOUDY    19  15  84 W12       30.17R WCI   7
JEROME         CLOUDY    18  16  92 W9        30.19R FOG     WCI   7
TWIN FALLS     CLOUDY    17  13  84 SW9       30.19R WCI   6
$$

IDZ019>023-071400-
SOUTHEAST IDAHO


CITY           SKY/WX    TMP DP  RH WIND       PRES   REMARKS
IDAHO FALLS    PTCLDY     5  -2  72 N3        30.16R
POCATELLO      FLURRIES  17  12  80 SW7       30.17R WCI   8
REXBURG        CLEAR      1  -2  87 E6        30.15R WCI -10
$$

IDZ006-010-011-018-031-032-071400-
CENTRAL IDAHO MOUNTAINS


CITY           SKY/WX    TMP DP  RH WIND       PRES   REMARKS
MCCALL         CLOUDY    10   6  84 CALM      30.11R
HAILEY         CLEAR      3  -4  72 NW8       30.12R WCI -10
STANLEY          N/A    -10 -14  82 CALM      30.08R
SALMON         CLOUDY    12   9  85 CALM      30.20S
CHALLIS        CLOUDY    10   7  87 W3        30.13R
$$

IDZ002-004-006-007-026-071400-
NORTHERN IDAHO


CITY           SKY/WX    TMP DP  RH WIND       PRES   REMARKS
LEWISTON       CLOUDY    20  14  77 SE5       30.39R WCI  13
LOWELL         NOT AVBL
COEUR D`ALENE  FLURRIES  21  14  74 N9        30.33R WCI  11
MULLAN PASS    CLOUDY     5   2  87 CALM      30.06R
$$



USA.gov is the U.S. government's official web portal to all federal, state and local government web resources and services.